Regional Weather Roundup
Issued by NWS

Home | Current Version | Previous Version | Graphics & Text | Print | Product List | Glossary On
Versions: 1 2 3 4 5 6 7 8 9 10 11 12 13 14 15 16 17 18 19 20 21 22 23 24 25 26 27 28 29 30 31 32 33 34 35 36 37 38 39 40 41 42 43 44 45 46 47 48 49 50
000
ASUS43 KDMX 161707
RWRIA

WEATHER ROUNDUP FOR IOWA
NATIONAL WEATHER SERVICE DES MOINES IA
1200 PM CDT TUE SEP 16 2014

NOTE: "FAIR" INDICATES FEW OR NO CLOUDS BELOW 12,000 FEET WITH NO
SIGNIFICANT WEATHER AND/OR OBSTRUCTIONS TO VISIBILITY.

* - THESE STATIONS ARE NOT NWS STATIONS...THUS NOT UNDER NWS
QUALITY CONTROL.  THEY ALSO DO NOT REPORT WEATHER SUCH
AS PRECIPITATION OR FOG.

IAZ001>003-012>014-020>022-031>034-043>046-161800-
   NORTHWEST IOWA

CITY           SKY/WX    TMP DP  RH WIND       PRES   REMARKS
CARROLL *      SUNNY     61  45  55 S8G16     30.20F
DENISON *      SUNNY     61  46  59 S10G17    30.18F
LE MARS *      SUNNY     61  48  63 S14       30.17F
ORANGE CITY *  SUNNY     61  45  55 S12G20    30.16F
SHELDON *      SUNNY     61  45  55 SW13G20   30.15F
SIOUX CITY     SUNNY     62  46  55 S10       30.17F
SPENCER        SUNNY     62  42  47 SW14G25   30.18F
STORM LAKE *   SUNNY     61  54  77 SW14      30.18F
$$

IAZ055>058-069>071-079>083-090>094-161800-
   SOUTHWEST IOWA

CITY           SKY/WX    TMP DP  RH WIND       PRES   REMARKS
ATLANTIC *     SUNNY     61  45  55 VRB7G16   30.20F
AUDUBON *      SUNNY     61  43  51 S8        30.22S
CLARINDA *     SUNNY     63  46  55 S6        30.22F
COUNCIL BLFS * SUNNY     61  48  63 SW5G12    30.20S
CRESTON *      MOSUNNY   59  45  58 VRB6G13   30.22F
HARLAN  *      SUNNY     61  46  59 S10       30.24F
LAMONI         MOSUNNY   60  45  57 S7        30.22F
SHENANDOAH *   SUNNY     63  48  59 VRB5G13   30.21F
$$

IAZ047>049-059>061-072>074-084-161800-
   CENTRAL IOWA

CITY           SKY/WX    TMP DP  RH WIND       PRES   REMARKS
AMES           SUNNY     61  44  53 S8        30.20F
ANKENY *       SUNNY     61  46  59 SW5G12    30.21F
CHARITON *     SUNNY     61  45  55 SE7       30.22S
DES MOINES     MOSUNNY   62  44  51 SW5       30.21F
GRINNELL*      SUNNY     61  41  48 SW3       30.22F
KNOXVILLE *    SUNNY     61  45  55 S6        30.21F
MARSHALLTOWN   SUNNY     61  42  49 W3        30.20F
PELLA *        SUNNY     63  43  48 CALM      30.23F
PERRY *          N/A     63  45  51 SW8       30.21S
$$

IAZ004>006-015-016-023>025-035-036-161800-
   NORTH CENTRAL IOWA

CITY           SKY/WX    TMP DP  RH WIND       PRES   REMARKS
ALGONA *       SUNNY     63  45  51 S8G14     30.18F
CLARION *        N/A     61  41  48 S7        30.19F
ESTHERVILLE    SUNNY     60  43  53 S15       30.17F
FORT DODGE *   SUNNY     63  45  51 S5        30.20F
MASON CITY     SUNNY     62  44  51 W10       30.20F
FOREST CITY *  SUNNY     61  43  51 SW7       30.19S
IOWA FALLS *     N/A     61  41  48 SW7       30.21F
$$

IAZ007>011-017>019-026>030-037>042-050>054-066-161800-
   NORTHEAST IOWA

CITY           SKY/WX    TMP DP  RH WIND       PRES   REMARKS
CEDAR RAPIDS   MOSUNNY   60  43  53 VRB3      30.21F
CHARLES CITY * SUNNY     61  41  48 SW8G14    30.20F
CLINTON *      MOSUNNY   61  43  51 N3        30.24F
DECORAH *      MOSUNNY   61  43  51 SW9       30.18F
DUBUQUE        SUNNY     59  42  53 W8        30.22F
MONTICELLO *   SUNNY     61  43  51 CALM      30.21F
OELWEIN *      SUNNY     61  41  48 SW7       30.21F
WATERLOO       SUNNY     61  42  49 VRB3      30.19F
$$

IAZ064-065-067-068-078-161800-
   EAST CENTRAL IOWA

CITY           SKY/WX    TMP DP  RH WIND       PRES   REMARKS
DAVENPORT      SUNNY     62  40  44 VRB6      30.22F
IOWA CITY      MOSUNNY   61  45  55 S5        30.23F
MT. PLEASANT * MOSUNNY   63  43  48 CALM      30.22F
MUSCATINE *    SUNNY     63  41  45 NW5       30.23F
QUAD CITIES    SUNNY     63  41  44 NW6       30.22F
$$

IAZ062-063-075>077-085>089-095>099-161800-
   SOUTHEAST IOWA

CITY           SKY/WX    TMP DP  RH WIND       PRES   REMARKS
BURLINGTON     SUNNY     60  42  51 SE5       30.22F
FAIRFIELD *    PTSUNNY   61  45  55 CALM      30.22F
FORT MADISON * SUNNY     63  45  51 CALM      30.23F
KEOKUK *       SUNNY     63  48  59 VRB6      30.22F
OSKALOOSA *      N/A     61  45  55 S3        30.22F
CENTERVILLE *  SUNNY     59  46  63 CALM      30.23F
OTTUMWA        SUNNY     61  46  57 VRB3      30.22F
WASHINGTON *   SUNNY     61  45  55 VRB5      30.22F
$$

ABBREVIATIONS USED IN REMARKS
   TC - TEMPERATURES IN CELSIUS
  WCI - WIND CHILL INDEX
   HX - HEAT INDEX
  VSB - VISIBILITY
$$




USA.gov is the U.S. government's official web portal to all federal, state and local government web resources and services.